Regional Weather Roundup
Issued by NWS Binghamton, NY

Home | Current Version | Previous Version | Text Only | Print | Product List | Glossary On
Versions: 1 2 3 4 5 6 7 8 9 10 11 12 13 14 15 16 17 18 19 20 21 22 23 24 25 26 27 28 29 30 31 32 33 34 35 36 37 38 39 40 41 42 43 44 45 46 47 48 49 50
000
ASUS41 KBGM 012310
RWRBGM
RWRBGM
BINGHAMTON REGIONAL WEATHER ROUNDUP
NATIONAL WEATHER SERVICE BINGHAMTON NY
700 PM EDT WED APR 01 2015

Note: "fair" indicates few or no clouds below 12,000 feet with no
significant weather and/or obstructions to visibility.

* = Station(s) that does not report precipitation, such as rain,
snow, etc, also no thunder or fog.

!NYZ009-015>018-022>025-036-037-044>046-055>057-062-020000
...CENTRAL NEW YORK...

CITY           SKY/WX    TMP DP  RH WIND       PRES   REMARKS
BINGHAMTON     CLEAR     38  14  37 N5        30.12R WCI  34
CORTLAND       FAIR      37  14  38 CALM      30.17R
DANSVILLE      CLEAR     46  19  34 N6        30.14S
ELMIRA         CLEAR     44  18  35 NE9       30.14R
ITHACA         CLEAR     38  17  42 NE3       30.17R
MONTICELLO     CLEAR     37   9  30 NW12G21   30.13R WCI  30
NORWICH        CLEAR     36   9  32 N3        30.17R
ONEONTA        CLEAR     34   1  25 NW6       30.11S WCI  29
PENN YAN       CLEAR     41  17  38 E5        30.16R
ROME           CLEAR     35   9  33 W9        30.20R WCI  28
SIDNEY         CLEAR     37  12  35 CALM      30.15S
SYRACUSE       PTCLDY    38   7  27 W8        30.19S WCI  32
$$

!PAZ038>040-043-044-047-048-072-020000
...NORTHEAST PENNSYLVANIA...

CITY           SKY/WX    TMP DP  RH WIND       PRES   REMARKS
HAZLETON       CLEAR     43  23  45 W6        30.14S
SCRANTON       CLEAR     47  21  35 VRB6      30.13R
TOWANDA*         N/A     48  19  32 MISG      30.14R
$$
&&
KEY
WCI = WIND CHILL INDEX
VSB = VISIBILITY
HX  = HEAT INDEX
$$



USA.gov is the U.S. government's official web portal to all federal, state and local government web resources and services.